Weather Roundup
Issued by NWS Chicago, IL

Home | Current Version | Previous Version | Graphics & Text | Print | Product List | Glossary On
Versions: 1 2 3 4 5 6 7 8 9 10 11 12 13 14 15 16 17 18 19 20 21 22 23 24 25 26 27 28 29 30 31 32 33 34 35 36 37 38 39 40 41 42 43 44 45 46 47 48 49 50
000
NZUS59 KLOT 021806
HRRLOT

CHICAGO AREA WEATHER ROUNDUP
NATIONAL WEATHER SERVICE CHICAGO/ROMEOVILLE IL
100 PM CDT TUE SEP 02 2014

NOTE: "FAIR" INDICATES FEW OR NO CLOUDS BELOW 12,000 FEET WITH NO
SIGNIFICANT WEATHER AND/OR OBSTRUCTIONS TO VISIBILITY.

* THESE STATIONS ARE NOT UNDER NWS QUALITY CONTROL. THEY ALSO MAY NOT
  REPORT WEATHER SUCH AS PRECIPITATION OR FOG.

ILZ005-006-012>014-019>023-021900-
NORTHEAST ILLINOIS

CITY           SKY/WX    TMP DP  RH WIND       PRES   REMARKS
OHARE          PTSUNNY   80  56  43 W9        29.89F HX  80
6HR MIN TEMP:  67; 6HR MAX TEMP:  80;

MIDWAY         MOSUNNY   82  58  43 W10       29.89S HX  82
6HR MIN TEMP:  69; 6HR MAX TEMP:  83;

AURORA         MOSUNNY   80  58  46 W9        29.91F HX  80
6HR MIN TEMP:  64; 6HR MAX TEMP:  80;

LANSING*         N/A    N/A N/A N/A MISG        N/A
JOLIET*        PTSUNNY   80  57  46 W8        29.91F HX  80
WAUKEGAN       MOSUNNY   79  57  46 SW9       29.89S HX  80
6HR MIN TEMP:  63; 6HR MAX TEMP:  79;

DUPAGE AIRPORT MOSUNNY   80  58  46 W9        29.90F HX  80
6HR MIN TEMP:  64; 6HR MAX TEMP:  80;

WHEELING       SUNNY     81  57  43 NW8       29.90F HX  81
6HR MIN TEMP:  68; 6HR MAX TEMP:  82;

KANKAKEE*      PTSUNNY   78  69  73 W7        29.92F HX  80
MORRIS*        MOSUNNY   80  62  53 W7        29.91F HX  82
LEWIS AIRPORT* MOSUNNY   79  59  49 W5        29.90F HX  80
NORTHERLY IS     N/A     74  66  76 E5          N/A
$$

WIZ051-052-058>065-066-070>072-021900-
SOUTHEAST WISCONSIN

CITY           SKY/WX    TMP DP  RH WIND       PRES   REMARKS
MILWAUKEE      PTSUNNY   77  55  46 W12       29.90R
6HR MIN TEMP:  62; 6HR MAX TEMP:  78;

KENOSHA*       MOSUNNY   78  60  53 VRB6      29.90S
RACINE*        MOSUNNY   78  58  49 VRB5      29.91S
BURLINGTON     MOSUNNY   74  59  58 W8        29.91S
WAUKESHA       PTSUNNY   73  59  60 W10       29.92R
WEST BEND      PTSUNNY   72  57  60 W9        29.90S
$$

INZ001>003-010>013-019-020-021900-
NORTHWEST INDIANA

CITY           SKY/WX    TMP DP  RH WIND       PRES   REMARKS
GARY*          PTSUNNY   81  63  54 SW7       29.90  HX  82
MICHIGAN CITY* NOT AVBL
RENSSELAER*    NOT AVBL
VALPARAISO     PTSUNNY   77  67  71 W8        29.92S
$$

LMZ740>746-021900-
SOUTHERN LAKE MICHIGAN

STATION/POSITION TIME  SKY/WX   TEMP WIND        PRES    VSBY
                                AIR  DIR/SP/G
                 (UTC)          (F)  (DEG/KT/KT) (MB)    (MI)
HARRISON CRIB    1800            71  110/  7/  8   N/A
BURNHAM HARBOR   1800            74  100/  5/  7   N/A
CALUMET HARBOR   1800            75   80/  7/  8 1011.0F
BURNS HARBOR     NOT AVBL
MICHIGAN CITY    1800            72  250/  7/  8   N/A
$$

ABBREVIATIONS USED IN REMARKS
   TC - TEMPERATURE IN CELSIUS
  WCI - WIND CHILL INDEX
   HX - HEAT INDEX
  VSB - VISIBILITY
$$


USA.gov is the U.S. government's official web portal to all federal, state and local government web resources and services.